Terminal Aerodrome Forecast
Issued by NWS

Home | Current Version | Previous Version | Text Only | Print | Product List | Glossary On
Versions: 1 2 3 4 5 6 7 8 9 10 11 12 13 14 15 16 17 18 19 20 21 22 23 24 25 26 27 28 29 30 31 32 33 34 35 36 37 38 39 40 41 42 43 44 45 46 47 48 49 50
000
FTUS46 KPQR 111310 AAA
TAFONP
TAF AMD
KONP 111310Z 1113/1212 35003KT 2SM BR OVC003
     FM111900 33012KT P6SM SCT250
     FM120300 33007KT P6SM FEW012 BKN250
     FM120500 23008KT 4SM BR BKN008 OVC015=

USA.gov is the U.S. government's official web portal to all federal, state and local government web resources and services.